Torna al catalogo

ENVISAT

AttivoScienzaSSO
NORAD 27386·PAYLOAD·🇪🇺 EU

Lanciato Mar 1, 2002 da Guiana Space Centre

Loading…

Prossimi Passaggi (prossime 24 ore)

TLE

AggiornatoSource: Space-Track

Epoca: Sep 14, 2026, 14:47 UTC

1 27386U 02009A   26257.61604682  .00000054  00000-0  31385-4 0  9995
2 27386  98.3920 206.9730 0001189  91.0151  82.0843 14.39082012286340

Traccia ENVISAT in tempo reale con AllMySat

Download on the App Store